DAL8384 KBHM-KBHM

Flight info

Callsign DAL8384
Flight time 0h 4m
Altitude 29000
Route DAYVS KWANE MEI MGM
Aircraft SF50/L-SDGRWY/L

Departure

Time 2026-04-30 00:27
Airport Birmingham-Shuttlesworth International Airport (KBHM)

Arrival

Time 2026-04-30 00:31
Airport Birmingham-Shuttlesworth International Airport (KBHM)
Time Latitude Longitude Altitude Speed Heading
2026-04-30 00:13 33.56214 -86.75333 624 ft 0 kts 130°
2026-04-30 00:18 33.56214 -86.75332 623 ft 0 kts 140°
2026-04-30 00:18 33.56222 -86.75370 626 ft 12 kts 307°
2026-04-30 00:18 33.56255 -86.75422 624 ft 7 kts 303°
2026-04-30 00:18 33.56263 -86.75437 629 ft 0 kts 300°
2026-04-30 00:19 33.56290 -86.75443 625 ft 14 kts 17°
2026-04-30 00:19 33.56392 -86.75361 620 ft 17 kts 35°
2026-04-30 00:20 33.56453 -86.75264 624 ft 13 kts 54°
2026-04-30 00:20 33.56504 -86.75180 623 ft 11 kts 52°
2026-04-30 00:20 33.56549 -86.75097 623 ft 15 kts 55°
2026-04-30 00:20 33.56601 -86.74973 622 ft 16 kts 81°
2026-04-30 00:21 33.56608 -86.74863 628 ft 12 kts 74°
2026-04-30 00:21 33.56649 -86.74780 627 ft 14 kts 57°
2026-04-30 00:21 33.56716 -86.74663 629 ft 18 kts 54°
2026-04-30 00:21 33.56778 -86.74556 628 ft 13 kts 56°
2026-04-30 00:22 33.56781 -86.74551 628 ft 0 kts 56°
2026-04-30 00:23 33.56782 -86.74549 625 ft 3 kts 55°
2026-04-30 00:23 33.56828 -86.74469 632 ft 21 kts 56°
2026-04-30 00:24 33.56905 -86.74335 628 ft 17 kts 56°
2026-04-30 00:24 33.56964 -86.74232 627 ft 14 kts 54°
2026-04-30 00:24 33.57016 -86.74142 631 ft 13 kts 53°
2026-04-30 00:24 33.57068 -86.74054 627 ft 14 kts 55°
2026-04-30 00:25 33.57121 -86.73962 631 ft 13 kts 56°
2026-04-30 00:25 33.57165 -86.73883 631 ft 10 kts 57°
2026-04-30 00:25 33.57208 -86.73830 634 ft 9 kts
2026-04-30 00:25 33.57277 -86.73867 633 ft 10 kts 325°
2026-04-30 00:26 33.57320 -86.73943 634 ft 13 kts 264°
2026-04-30 00:26 33.57298 -86.74007 634 ft 0 kts 234°
2026-04-30 00:26 33.57235 -86.74116 635 ft 53 kts 236°
2026-04-30 00:27 33.56893 -86.74710 687 ft 117 kts 233°
2026-04-30 00:27 33.56354 -86.75632 1035 ft 145 kts 231°
2026-04-30 00:27 33.55710 -86.76554 1699 ft 147 kts 229°
2026-04-30 00:27 33.54987 -86.77491 2269 ft 164 kts 222°
2026-04-30 00:28 33.53959 -86.78023 2983 ft 157 kts 179°
2026-04-30 00:28 33.52984 -86.77615 3555 ft 150 kts 145°
2026-04-30 00:28 33.52147 -86.76786 3727 ft 162 kts 137°
2026-04-30 00:28 33.51363 -86.75836 3996 ft 160 kts 109°
2026-04-30 00:29 33.51399 -86.74706 4603 ft 146 kts 49°
2026-04-30 00:29 33.52168 -86.73876 4945 ft 178 kts 26°
2026-04-30 00:29 33.53388 -86.73006 4408 ft 215 kts 26°
2026-04-30 00:29 33.54656 -86.72006 3918 ft 221 kts 30°
2026-04-30 00:30 33.55903 -86.71188 3948 ft 193 kts 14°
2026-04-30 00:30 33.57310 -86.71179 2810 ft 219 kts 334°
2026-04-30 00:30 33.57833 -86.72241 3226 ft 129 kts 268°
2026-04-30 00:30 33.57703 -86.73424 2496 ft 176 kts 237°
2026-04-30 00:31 33.56920 -86.74622 857 ft 190 kts 233°
2026-04-30 00:31 33.56305 -86.75738 659 ft 146 kts 230°
2026-04-30 00:31 33.55821 -86.76549 611 ft 85 kts 234°
2026-04-30 00:31 33.55591 -86.76949 596 ft 36 kts 231°
2026-04-30 00:32 33.55505 -86.76959 595 ft 11 kts 150°
2026-04-30 00:32 33.55498 -86.76943 595 ft 0 kts 100°
2026-04-30 00:33 33.55499 -86.76928 595 ft 5 kts 76°
2026-04-30 00:33 33.55519 -86.76883 596 ft 10 kts 53°
2026-04-30 00:34 33.55582 -86.76775 597 ft 21 kts 57°
2026-04-30 00:34 33.55657 -86.76642 601 ft 17 kts 53°
2026-04-30 00:34 33.55720 -86.76536 601 ft 14 kts 56°
2026-04-30 00:34 33.55770 -86.76449 601 ft 12 kts 55°
2026-04-30 00:35 33.55822 -86.76353 604 ft 16 kts 54°
2026-04-30 00:35 33.55902 -86.76222 613 ft 21 kts 54°
2026-04-30 00:35 33.55980 -86.76086 616 ft 17 kts 55°
2026-04-30 00:35 33.56031 -86.75993 619 ft 11 kts 57°
2026-04-30 00:36 33.56074 -86.75919 614 ft 11 kts 55°
2026-04-30 00:36 33.56119 -86.75842 616 ft 11 kts 55°